CDT,Max TemperatureF,Mean TemperatureF,Min TemperatureF,Max Dew PointF,MeanDew PointF,Min DewpointF,Max Humidity, Mean Humidity, Min Humidity, Max Sea Level PressureIn, Mean Sea Level PressureIn, Min Sea Level PressureIn, Max VisibilityMiles, Mean VisibilityMiles, Min VisibilityMiles, Max Wind SpeedMPH, Mean Wind SpeedMPH, Max Gust SpeedMPH,PrecipitationIn, CloudCover, Events, WindDirDegrees
2013-7-1,77,66,56,55,51,46,89,56,34,30.12,30.09,30.05,10,10,7,20,8,28,0.00,0,,22
2013-7-2,75,66,57,60,52,40,100,64,30,30.13,30.10,30.07,10,10,10,20,7,24,0.00,0,Thunderstorm,30
2013-7-3,72,63,54,65,59,53,100,85,64,30.10,30.07,30.04,10,10,10,7,4,,0.00,5,,12
2013-7-4,82,70,59,66,59,51,100,68,35,30.09,30.06,30.02,10,9,3,13,6,16,0.00,1,,182
2013-7-5,84,74,63,67,63,60,100,71,44,30.08,30.05,30.01,10,10,10,14,9,21,0.00,1,,185
2013-7-6,84,74,64,71,65,62,100,74,47,30.06,30.02,29.97,10,10,10,13,9,17,0.00,1,,185
2013-7-7,88,78,67,76,69,66,100,77,49,30.00,29.97,29.94,10,9,2,14,10,16,0.00,1,,195
2013-7-8,88,80,71,80,73,67,100,81,54,30.00,29.96,29.94,10,10,7,21,12,28,0.19,3,Rain-Thunderstorm,228
2013-7-9,85,78,71,80,75,70,100,91,61,30.00,29.94,29.87,10,9,0,25,8,29,0.00,3,Fog-Rain-Thunderstorm,217
2013-7-10,80,73,66,79,63,52,100,69,39,30.04,29.96,29.89,10,10,10,15,8,21,0.00,2,,320
2013-7-11,80,72,63,58,54,51,73,53,37,30.15,30.11,30.05,10,10,10,10,4,9,0.00,0,,20
2013-7-12,82,71,60,62,54,48,100,56,30,30.18,30.13,30.10,10,10,10,9,5,,0.00,0,,159
2013-7-13,83,72,60,64,58,54,98,62,37,30.18,30.14,30.10,10,10,10,10,7,,0.00,0,,145
2013-7-14,87,74,63,74,65,58,100,72,46,30.24,30.20,30.16,10,10,10,10,6,,0.00,1,,112
2013-7-15,91,80,70,79,71,66,100,75,44,30.29,30.26,30.22,10,10,7,9,5,,0.00,2,,135
2013-7-16,90,82,73,81,75,70,100,80,51,30.31,30.28,30.26,10,9,2,10,7,,0.00,1,,204
2013-7-17,93,84,76,79,73,67,100,71,42,30.33,30.27,30.20,10,10,7,15,8,18,0.00,1,,229
2013-7-18,93,84,76,79,73,68,100,73,43,30.21,30.09,29.95,10,10,10,20,9,24,0.00,1,,221
2013-7-19,90,82,74,79,70,63,100,68,48,29.94,29.85,29.78,10,10,7,26,15,32,0.00,1,Rain-Thunderstorm,240
2013-7-20,87,76,64,71,61,54,100,61,35,29.97,29.91,29.86,10,10,10,10,6,16,0.00,2,,316
2013-7-21,86,74,62,67,64,61,100,85,48,29.98,29.94,29.88,10,10,10,20,7,26,0.01,2,Thunderstorm,94
2013-7-22,87,74,62,76,66,62,100,79,48,29.90,29.82,29.75,10,8,0,22,7,32,0.33,3,Fog-Rain-Thunderstorm,190
2013-7-23,76,69,61,67,57,51,100,68,42,30.00,29.87,29.75,10,10,10,15,10,24,0.00,2,,337
2013-7-24,73,64,55,61,52,48,100,67,43,30.10,30.06,30.00,10,10,10,9,4,,0.00,1,,52
2013-7-25,81,68,56,66,57,49,100,69,46,30.10,30.06,30.00,10,10,7,16,8,23,0.01,2,Rain,202
2013-7-26,76,68,61,72,63,52,100,86,43,30.00,29.94,29.88,10,9,1,23,10,34,0.71,5,Rain-Thunderstorm,231
2013-7-27,62,58,53,60,48,42,100,75,50,29.97,29.94,29.90,10,10,7,16,10,22,0.00,6,,308
2013-7-28,68,60,52,55,50,45,100,73,50,30.05,29.95,29.87,10,10,10,15,10,21,0.00,7,Rain,284
2013-7-29,76,65,54,63,55,49,100,71,48,30.17,30.12,30.05,10,10,10,12,7,,0.00,2,,279
2013-7-30,70,64,57,68,63,57,100,98,78,30.18,30.14,30.09,10,7,1,9,5,,0.08,6,Rain,116
2013-7-31,78,70,63,69,65,61,100,86,57,30.09,30.04,29.98,10,7,0,12,3,18,0.01,6,Fog,328